Flag for Switzerland Weather past 2 weeks in Delémont, Jura, Switzerland

Now
58 °F

Cool.


Feels Like: 57 °F
Forecast: 44 / 65 °F
Wind: 7 mph from East

Location: Grenchen

Current Time: May 24, 2015 at 9:46:52 AM

Latest Report: May 24, 2015 at 9:00 AM


Visibility: N/A

Pressure: 30.05 "Hg

Humidity: 69%

Dew point: 48 °F

Location of DelémontLocation

Historic Weather in Delémont — Graph

°F

Delémont temperature yesterday

Maximum temperature yesterday: 64 °F (at 2:00 PM)
Minimum temperature yesterday: 41 °F (at 6:00 AM)
Average temperature yesterday: 54 °F

Past Weeks' High & Low Weather Summary

 TemperatureHumidityPressure
High83 °F (May 13, 5:00 PM)100% (May 10, 7:00 AM)30.41 "Hg (May 10, 7:00 AM)
Low38 °F (May 22, 5:00 AM)30% (May 13, 4:00 PM)29.73 "Hg (May 18, 8:00 PM)
Average57 °F71%30.11 "Hg
* Reported May 9 8:00 AM — May 24 8:00 AM, Delémont, Weather by CustomWeather, © 2015

Note: Actual official high and low records may vary slightly from our data, if they occured in-between our weather recording intervals... More about our weather records

Advertising

Delémont weather history for previous 24 hours

 ConditionsComfort  
Time TempWeatherWind HumidityBarometerVisibility
8:00 AM
Sun, May 24
54 °FCool.No wind82%30.06 "HgN/A
7:00 AM50 °FCool.No wind92%30.06 "HgN/A
6:00 AM50 °FCool.No wind88%30.05 "HgN/A
5:00 AM51 °FCool.2 mph87%30.05 "HgN/A
4:00 AM51 °FCool.1 mph83%30.06 "HgN/A
3:00 AM50 °FCool.3 mph85%30.07 "HgN/A
2:00 AM51 °FCool.1 mph81%30.07 "HgN/A
1:00 AM51 °FCool.2 mph83%30.08 "HgN/A
12:00 AM51 °FCool.3 mph84%30.09 "HgN/A
10:00 PM
Sat, May 23
55 °FCool.3 mph72%30.07 "HgN/A
9:00 PM56 °FCool.3 mph72%30.05 "HgN/A
8:00 PM59 °FRefreshingly cool.5 mph60%30.03 "HgN/A
7:00 PM60 °FRefreshingly cool.6 mph55%30.03 "HgN/A
6:00 PM62 °FMild.12 mph50%30.02 "HgN/A
5:00 PM64 °FMild.13 mph48%30.01 "HgN/A
4:00 PM64 °FMild.15 mph46%30.02 "HgN/A
3:00 PM62 °FRefreshingly cool.14 mph49%30.03 "HgN/A
2:00 PM64 °FMild.17 mph44%30.03 "HgN/A
1:00 PM62 °FRefreshingly cool.16 mph52%30.05 "HgN/A
12:00 PM60 °FRefreshingly cool.14 mph53%30.06 "HgN/A
11:00 AM59 °FRefreshingly cool.16 mph58%30.07 "HgN/A
10:00 AM56 °FCool.10 mph65%30.08 "HgN/A
9:00 AM52 °FCool.7 mph80%30.10 "HgN/A
Weather by CustomWeather, © 2015

See weather overviewHow to use our weather pages